User: anonymous   Login
Location: Unspecified
(0.0000°N, 0.0000°E)
Time: 19:55:40
(UTC+00:00)
Language:

DNEPR OBJECT AC - Orbit

View from above orbital plane
View from above orbital plane
View from above satellite
View from above satellite

Ground track
Ground track

The orbit data is extracted from the following two-line orbital elements,

1 39442U 13066AC  17269.13687516  .00000414  00000-0  48016-4 0  9992
2 39442  97.6386 327.1905 0030655 246.4350 113.3647 14.90276505207725
Epoch (UTC): 26 September 2017 03:17:06
Eccentricity: 0.0030655
inclination: 97.6386°
perigee height: 575 km
apogee height: 618 km
right ascension of ascending node: 327.1905°
argument of perigee: 246.4350°
revolutions per day: 14.90276505
mean anomaly at epoch: 113.3647°
orbit number at epoch: 20772

The dashed part of the orbit path shows where the satellite is in the earth's shadow,  

DLR